Regional Weather Roundup
Issued by NWS

Home | Current Version | Previous Version | Text Only | Print | Product List | Glossary Off
Versions: 1 2 3 4 5 6 7 8 9 10 11 12 13 14 15 16 17 18 19 20 21 22 23 24 25 26 27 28 29 30 31 32 33 34 35 36 37 38 39 40 41 42 43 44 45 46 47 48 49 50

000
ASUS43 KLSX 291407
RWRMO

WEATHER SUMMARY FOR MISSOURI
NATIONAL WEATHER SERVICE SPRINGFIELD MO
900 AM CDT SUN MAR 29 2015

NOTE: "FAIR" INDICATES FEW OR NO CLOUDS BELOW 12,000 FEET WITH NO
       SIGNIFICANT WEATHER AND/OR OBSTRUCTIONS TO VISIBILITY.
       CURRENT SKY AND/OR WEATHER CONDITIONS ARE NOT AVAILABLE FOR
       CHILLICOTHE AND FARMINGTON.

MOZ001>031-035>038-043-044-053-054-291500-
...NORTHERN AND WESTERN MISSOURI...

CITY           SKY/WX    TMP DP  RH WIND       PRES   REMARKS
KANSAS CTY INT PTSUNNY   43  36  76 S15       29.98F
KANSAS C DTWN  CLOUDY    44  36  73 S9        30.03F
LEE`S SUMMIT   LGT RAIN  40  35  83 CALM      30.06R
ST JOSEPH      PTSUNNY   45  37  73 S14       29.97F
CHILLICOTHE      N/A     40  33  76 SW9G17    30.03S
KIRKSVILLE     CLOUDY    38  33  82 S17G30    29.96F WCI  28

$$
MOZ066>068-077>081-088>096-101>105-291500-
...SOUTHWEST MISSOURI...

CITY           SKY/WX    TMP DP  RH WIND       PRES   REMARKS
SPRINGFIELD    SUNNY     41  29  62 SE24G33   30.00F
JOPLIN         SUNNY     51  36  56 S15       29.98R

$$
MOZ032>034-039>042-045>050-055>058-069>072-291500-
...CENTRAL MISSOURI...

CITY           SKY/WX    TMP DP  RH WIND       PRES   REMARKS
COLUMBIA       CLOUDY    42  28  57 S22       30.03F
JEFFERSON CITY CLOUDY    42  26  53 SE15      30.08F
ROLLA          PTSUNNY   40  26  57 S24G32    30.07F WCI  29
SEDALIA        CLOUDY    42  31  64 S22       29.98F
WHITEMAN AFB   CLOUDY    41  33  71 S12       30.00F
WARRENSBURG    CLOUDY    41  32  70 W7        30.08R
OSAGE BEACH    MOSUNNY   43  27  52 S15G24    30.04F

$$
MOZ051-052-059>065-291500-
...EAST CENTRAL MISSOURI...

CITY           SKY/WX    TMP DP  RH WIND       PRES   REMARKS
ST LOUIS INTL  PTSUNNY   41  19  41 S14       30.14F
SPIRIT OF STL  MOSUNNY   42  21  43 S13G22    30.13F
ST CHARLES     MOSUNNY   40  23  50 S15       30.14F

$$
MOZ072>076-082>087-097>100-106>115-291500-
...SOUTH CENTRAL AND SOUTHEAST MISSOURI...

CITY           SKY/WX    TMP DP  RH WIND       PRES   REMARKS
CAPE GIRARDEAU SUNNY     39  24  55 SE13      30.25F
FARMINGTON     SUNNY     39  25  56 S12       30.21R
POPLAR BLUFF   SUNNY     40  31  70 S10       30.23S
WEST PLAINS    SUNNY     37  26  64 SE13      30.15S WCI  29

$$


USA.gov is the U.S. government's official web portal to all federal, state and local government web resources and services.